Hourly Data Report for April 19, 2004

TORONTO CITY
ONTARIO

43°40'00.000" N
79°24'00.000" W
112.50 m
6158355
71508
XTO

Download Data

Hourly Data (April 2004)
Hourly Data Report for April 19, 2004
TIME
LST
Temp Definition
°C
Dew Point Definition
°C
Rel Hum Definition
%
Precip. Amount Definition
mm

Wind Dir Definition
10's deg

Wind Spd Definition
km/h
Visibility Definition
km
Stn Press Definition
kPa
Hmdx Definition


Wind Chill Definition


Weather Definition


00:00 10.0 8.4 90   LegendMM LegendMM LegendMM 99.84     LegendNANA
01:00 11.4 8.1 80   LegendMM LegendMM LegendMM 99.82     LegendNANA
02:00 13.6 8.9 73   LegendMM LegendMM LegendMM 99.76     LegendNANA
03:00 12.8 8.1 73   LegendMM LegendMM LegendMM 99.72     LegendNANA
04:00 12.2 8.3 77   LegendMM LegendMM LegendMM 99.60     LegendNANA
05:00 13.9 8.5 70   LegendMM LegendMM LegendMM 99.60     LegendNANA
06:00 13.8 8.6 71   LegendMM LegendMM LegendMM 99.58     LegendNANA
07:00 16.5 9.7 64   LegendMM LegendMM LegendMM 99.56     LegendNANA
08:00 17.3 9.5 60   LegendMM LegendMM LegendMM 99.53     LegendNANA
09:00 17.3 9.5 60   LegendMM LegendMM LegendMM 99.49     LegendNANA
10:00 18.4 11.2 63   LegendMM LegendMM LegendMM 99.46     LegendNANA
11:00 18.0 11.3 65   LegendMM LegendMM LegendMM 99.46     LegendNANA
12:00 17.6 11.0 65   LegendMM LegendMM LegendMM 99.42     LegendNANA
13:00 21.2 12.7 58   LegendMM LegendMM LegendMM 99.37     LegendNANA
14:00 21.0 12.3 58   LegendMM LegendMM LegendMM 99.29     LegendNANA
15:00 21.3 12.9 59   LegendMM LegendMM LegendMM 99.24     LegendNANA
16:00 22.3 14.7 62   LegendMM LegendMM LegendMM 99.26 26   LegendNANA
17:00 16.5 10.1 66   LegendMM LegendMM LegendMM 99.59     LegendNANA
18:00 13.4 6.5 63   LegendMM LegendMM LegendMM 99.75     LegendNANA
19:00 9.9 4.7 70   LegendMM LegendMM LegendMM 99.92     LegendNANA
20:00 8.3 3.6 72   LegendMM LegendMM LegendMM 100.07     LegendNANA
21:00 7.4 2.7 72   LegendMM LegendMM LegendMM 100.26     LegendNANA
22:00 7.2 3.1 75   LegendMM LegendMM LegendMM 100.40     LegendNANA
23:00 7.5 3.2 74   LegendMM LegendMM LegendMM 100.50     LegendNANA

Notes on Data Quality.

Legend

  • E = Estimated
  • M = Missing
  • NA = Not Available*
  • [empty] = Indicates an unobserved value
Date modified: